Simultaneous Nadir Overpasses (SNOs) Predictions

Prediction of SNOs between METOP-B and NOAA-19 Satellite Orbit:

Table of predicted SNOs for the next 14.0 days since TLE Epoch: 10/17/2023
Index Date (METOP-B) Time (METOP-B) Lat,Lon (METOP-B) SZA (METOP-B ) Date (NOAA-19) Time (NOAA-19) Lat,Lon (NOAA-19) SZA (NOAA-19 ) Distance(km) Time Diff (sec)
1 10/17/2023 13:52:19 80.77, 2.73 91.60 10/17/2023 13:51:06 80.76, 2.66 91.56 1.54 73
2 10/17/2023 14:43:00 -80.77, 170.07 88.39 10/17/2023 14:42:04 -80.76, 170.01 88.42 1.15 56
3 10/17/2023 15:33:40 80.78, -22.43 91.65 10/17/2023 15:33:04 80.77, -22.56 91.62 2.47 36
4 10/17/2023 16:24:21 -80.78, 144.90 88.34 10/17/2023 16:24:02 -80.77, 144.78 88.36 2.21 19
5 10/17/2023 17:15:02 80.77, -47.95 91.66 10/17/2023 17:15:02 80.78, -47.78 91.68 3.20 0
6 10/17/2023 18:05:42 -80.79, 119.73 88.29 10/17/2023 18:06:00 -80.78, 119.55 88.30 3.28 18
7 10/17/2023 18:56:23 80.78, -73.12 91.71 10/17/2023 18:57:00 80.78, -73.01 91.74 2.25 37
8 10/17/2023 19:47:03 -80.80, 94.56 88.24 10/17/2023 19:47:57 -80.80, 94.69 88.20 2.25 54
9 10/17/2023 20:37:44 80.79, -98.29 91.76 10/17/2023 20:38:58 80.79, -98.23 91.80 1.33 74
10 10/29/2023 03:45:38 -80.74, -26.12 84.40 10/29/2023 03:44:31 -80.73, -26.22 84.44 2.00 67
11 10/29/2023 04:36:18 80.74, 141.29 95.63 10/29/2023 04:35:33 80.74, 141.34 95.62 0.91 45
12 10/29/2023 05:26:59 -80.75, -51.30 84.35 10/29/2023 05:26:29 -80.74, -51.46 84.39 3.09 30
13 10/29/2023 06:17:39 80.75, 116.11 95.68 10/29/2023 06:17:31 80.75, 116.10 95.67 0.30 8
14 10/29/2023 07:08:20 -80.76, -76.48 84.31 10/29/2023 07:08:26 -80.76, -76.34 84.29 2.40 6
15 10/29/2023 07:59:00 80.76, 90.93 95.72 10/29/2023 07:59:29 80.76, 90.87 95.72 1.26 29
16 10/29/2023 08:49:41 -80.77,-101.66 84.26 10/29/2023 08:50:24 -80.77,-101.59 84.24 1.27 43



Historial Predications of SNOs between METOP-B and NOAA-19
